Вернуться в каталог

STARLINK-32401

АктивенСвязьVLEO
NORAD 61865·PAYLOAD·🇺🇸 United States

Запущен Nov 7, 2024 с Cape Canaveral Space Force Station

Loading…

Ближайшие Пролёты (ближайшие 24 часа)

TLE

СвежийSource: CelesTrak SupGP

Эпоха: Sep 15, 2026, 02:53 UTC

1 61865C 24202W   26258.12062500 -.00022275  00000+0 -80709-3 0  2589
2 61865  43.0008 248.5369 0001426 271.6701 120.5471 15.27577975    13

Отслеживайте STARLINK-32401 в реальном времени с AllMySat

Download on the App Store